Regional Weather Roundup
Issued by NWS

Home | Current Version | Previous Version | Text Only | Print | Product List | Glossary Off
Versions: 1 2 3 4 5 6 7 8 9 10 11 12 13 14 15 16 17 18 19 20 21 22 23 24 25 26 27 28 29 30 31 32 33 34 35 36 37 38 39 40 41 42 43 44 45 46 47 48 49 50

000
ASUS43 KIND 230809
RWRIN

WEATHER ROUNDUP FOR INDIANA
NATIONAL WEATHER SERVICE INDIANAPOLIS IN
400 AM EDT THU OCT 23 2014

NOTE: "FAIR" INDICATES FEW OR NO CLOUDS BELOW 12,000 FEET WITH NO
SIGNIFICANT WEATHER AND/OR OBSTRUCTIONS TO VISIBILITY.

* - STATION DOES NOT REPORT WEATHER SUCH AS PRECIPITATION OR FOG.

+ - STATION NOT QUALITY CONTROLLED BY THE NATIONAL WEATHER SERVICE.
    USE DATA WITH CAUTION...ESPECIALLY DEWPOINT AND RELATIVE
    HUMIDITY OBSERVATIONS.

INZ001>003-010>013-019-020-230900-
NORTHWEST INDIANA

CITY           SKY/WX    TMP DP  RH WIND       PRES   REMARKS
GARY /AIRPORT/ CLEAR     41  39  91 SE5       30.25S
KNOX *+          N/A     31  30  96 CALM      30.25F VSB 1/4
LA PORTE +     FOG       33  33 100 CALM      30.26F VSB 1/4
MICHIGAN CITY+ CLEAR     36  34  93 CALM      30.26F
MONTICELLO +   CLEAR     39  38  97 CALM      30.25F
RENSSELAER +   CLEAR     34  34 100 E3        30.25F FOG
VALPARAISO     FOG       33  33 100 NE3       30.26F VSB 1/2

$$

LMZ046-743>745-230900-
SOUTHERN LAKE MICHIGAN

STATION/POSITION TIME  TEMP WIND        PRES
                       AIR  DIR/SP/G
                 (UTC) (F)  (DEG/KT/KT) (MB)
MICHIGAN CITY    0800   42  130/ 10/ 13   N/A

$$

INZ004-005-014>016-021>024-230900-
NORTH CENTRAL INDIANA

CITY           SKY/WX    TMP DP  RH WIND       PRES   REMARKS
GOSHEN         FOG       31  30  96 CALM      30.26F VSB 1/2
LOGANSPORT +     N/A     32  32 100 E5        30.27F FOG     WCI  27
PERU/GRISSOM   CLEAR     36  36 100 SE5       30.26F FOG
ROCHESTER +      N/A     36  36 100 CALM      30.27F FOG
SOUTH BEND     CLEAR     37  34  89 CALM      30.27F FOG
WARSAW +       FOG       32  32 100 CALM      30.27F VSB 1/4

$$

INZ006>009-017-018-025>027-230900-
NORTHEAST INDIANA

CITY           SKY/WX    TMP DP  RH WIND       PRES   REMARKS
ANGOLA *+      CLOUDY    30  18  59 CALM      30.26F VSB 0
AUBURN +         N/A     32  32 100 CALM      30.28F FOG
FORT WAYNE     MOCLDY    33  32  96 CALM      30.28F FOG
HUNTINGTON +   FOG       33  32  99 CALM      30.27F VSB 3/4

$$

INZ028-029-035-036-043>045-051>053-230900-
WEST CENTRAL INDIANA

CITY           SKY/WX    TMP DP  RH WIND       PRES   REMARKS
GREENCASTLE +  CLEAR     37  36  93 CALM      30.26F
LAFAYETTE      CLEAR     38  36  92 E5        30.26F
TERRE HAUTE    CLEAR     36  35  96 CALM      30.25F

$$

INZ030>032-037>040-046>048-054>057-064-065-230900-
CENTRAL INDIANA

CITY           SKY/WX    TMP DP  RH WIND       PRES   REMARKS
CP ATTERBURY + FOG       32  32 100 CALM      30.27F VSB<1/4
FRANKFORT +    CLEAR    N/A N/A N/A E3        30.27F FOG
INDIANAPOLIS   CLEAR     41  37  86 E3        30.25F
-EAGLE CREEK   CLEAR     37  35  92 CALM      30.26F
KOKOMO *+      CLEAR     34  32  93 CALM      30.27F
MARION +       CLEAR     34  34  99 CALM      30.27F FOG
MT COMFORT *+    N/A     34 N/A N/A CALM      30.27F VSB 3/4
SHELBYVILLE    FOG       34  31  88 CALM      30.26F VSB 1
ZIONSVILLE +   FOG       34  32  92 CALM      30.27F VSB 1/4

$$

INZ033-034-041-042-049-050-058-059-230900-
EAST CENTRAL INDIANA

CITY           SKY/WX    TMP DP  RH WIND       PRES   REMARKS
MUNCIE         PTCLDY    35  33  92 CALM      30.26F FOG

$$

INZ060-061-067>069-081>083-085>088-230900-
SOUTHWEST INDIANA

CITY           SKY/WX    TMP DP  RH WIND       PRES   REMARKS
EVANSVILLE     CLEAR     44  40  85 CALM      30.25S
HUNTINGBURG *+ CLEAR     39  36  87 CALM      30.25F
WASHINGTON +   FOG       38  38 100 CALM      30.25S VSB 1/2

$$

INZ062-063-066-070>080-084-089>092-230900-
SOUTH CENTRAL AND SOUTHEAST INDIANA

CITY           SKY/WX    TMP DP  RH WIND       PRES   REMARKS
BLOOMINGTON    CLEAR     35  34  96 CALM      30.25F

$$




USA.gov is the U.S. government's official web portal to all federal, state and local government web resources and services.